AirNav   ATP
 
 1525 users online  

T24 Pineland Municipal Airport
Pineland, Texas, USA


FAA INFORMATION EFFECTIVE 01 FEBRUARY 2018

Location

FAA Identifier: T24
Lat/Long: 31-14-00.6790N / 093-58-54.6800W
31-14.011317N / 093-58.911333W
31.2335219 / -93.9818556
(estimated)
Elevation: 260 ft. / 79 m (estimated)
Variation: 05E (1985)
From city: 1 mile SW of PINELAND, TX
Time zone: UTC -6 (UTC -5 during Daylight Saving Time)
Zip code: 75968

Airport Operations

Airport use: Open to the public
Activation date: 03/1961
Control tower: no
ARTCC: HOUSTON CENTER
FSS: MONTGOMERY COUNTY FLIGHT SERVICE STATION
NOTAMs facility: CXO (NOTAM-D service available)
Attendance: UNATNDD
Wind indicator: lighted
Segmented circle: yes
Lights: ACTVT MIRL RY 17/35 - CTAF.
Beacon: white-green (lighted land airport)
Operates sunset to sunrise.

Airport Communications

CTAF/UNICOM: 122.8

Nearby radio navigation aids

VOR radial/distance  VOR name  Freq  Var
LFKr079/38.0LUFKIN VORTAC112.1005E
FXUr279/(39.8)POLK VOR108.4002E

 
NDB name  Hdg/Dist  Freq  Var  ID
AMASON162/37.034104ECZJ -.-. --.. .---

Airport Services

Airframe service: NONE
Powerplant service: NONE
Bottled oxygen: NONE
Bulk oxygen: NONE

Runway Information

Runway 17/35

Dimensions: 3700 x 75 ft. / 1128 x 23 m
Surface: asphalt, in fair condition
Weight bearing capacity: 
Single wheel: 14.0
Runway edge lights: medium intensity
Runway edge markings: MARKINGS FADED.
RUNWAY 17  RUNWAY 35
Gradient: 0.5%0.5%
Traffic pattern: leftleft
Markings: basic, in poor conditionbasic, in poor condition
Obstructions: 65 ft. trees, 1521 ft. from runway, 20:1 slope to clear24 ft. trees, 975 ft. from runway, 32:1 slope to clear

Airport Ownership and Management from official FAA records

Ownership: Publicly-owned
Owner: CITY OF PINELAND
PO BOX 6
PINELAND, TX 75968
Phone 409-584-2390
Manager: CHARLES CORLEY
PO BOX 6
PINELAND, TX 75968
Phone 409-584-2390

Airport Operational Statistics

Aircraft based on the field: 7
Single engine airplanes: 7
    
Aircraft operations: avg 54/week *
75% local general aviation
25% transient general aviation
* for 12-month period ending 13 January 2016

Instrument Procedures

There are no published instrument procedures at T24.

Some nearby airports with instrument procedures:

KJAS - Jasper County Airport-Bell Field (21 nm S)
3R4 - Hart Airport (32 nm NE)
L39 - Leesville Airport (33 nm E)
F17 - Center Municipal Airport (37 nm N)
KLFK - Angelina County Airport (39 nm W)
 
Loc | Ops | Rwys | IFR | FBO | Links
Com | Nav | Svcs | Stats | Notes

AirNav Hotels Sweepstakes
 
Area around T24 (Pineland Municipal Airport)
 
Road maps at: MapQuest Bing Google
 
Aerial photo
WARNING: Photo may not be current or correct
Aerial photo of T24 (Pineland Municipal Airport)
Do you have a better or more recent aerial photo of Pineland Municipal Airport that you would like to share? If so, please send us your photo.

 
Sectional chart

 
Airport distance calculator
Flying to Pineland Municipal Airport? Find the distance to fly.

From to T24

Sunrise and sunset
Times for 23-Feb-2018
 Local
(UTC-6)
 Zulu
(UTC)
Morning civil twilight06:2612:26
Sunrise06:5012:50
Sunset18:0800:08
Evening civil twilight18:3300:33

Current date and time
Zulu (UTC)  23-Feb-2018 19:55:43
Local (UTC-6)  23-Feb-2018 13:55:43
 
METAR
KJAS 
21nm S 
231935Z AUTO 18008KT 10SM SCT041 BKN060 27/18 A3015 RMK AO2 T02710178
KF17 
37nm N 
231935Z AUTO 15009G14KT 10SM 25/16 A3013 RMK AO2 T02510155
KAQV 
38nm NE 
231856Z AUTO VRB05KT BKN038 M17/ A3015 RMK AO2 SLPNO T1172 $
KLFK 
39nm W 
231853Z AUTO 18008G21KT 10SM FEW033 SCT044 25/18 A3013 RMK AO2 SLP199 T02500183
KDRI 
41nm SE 
231935Z AUTO 14009G15KT 10SM SCT040 SCT046 28/16 A3015 RMK AO2 T02760161
TAF
KLFK 
39nm W 
231740Z 2318/2418 VRB03KT 2SM BR OVC005 TEMPO 2318/2320 1SM BR OVC003 FM232000 16007KT 5SM BR BKN020 TEMPO 2320/2324 4SM -SHRA OVC015 FM240300 15005KT 4SM -DZ OVC010
NOTAMs
Click for the latest NOTAMs
NOTAMs are issued by the DoD/FAA and will open in a separate window not controlled by AirNav.

 

 
 

Would you like to see your business listed on this page?

 If your business provides an interesting product or service to pilots, flight crews, aircraft, or users of the Pineland Municipal Airport, you should consider listing it here.  To start the listing process, click on the button below
 
Add a business
 

Other Pages about Pineland Municipal Airport

Update a link
 
Copyright © AirNav, LLC. All rights reserved. Privacy Policy  Contact